Погода в Верховском Погосте

Россия / Вологодская область     60°27′39″N   42°57′28″E
темп.,
°C
ветер,
м/с
пор.,
м/с
влажн.,
%
обл.,
%
осадки,
мм/ч
давл.,
гПа
погр.,
м
12 мая, ср
ср1200:00+10ююз25875 0.0 102978
03:00+9ююз22909 0.0 102932
06:00+12ююз25755 0.0 1029144
09:00+18ююз22515 0.0 1029610
12:00+21ю23390 0.0 10281132
15:00+23ю22330 0.0 10271356
18:00+21ю12450 0.0 102672
21:00+14ююв22630 0.0 102611
13 мая, чт
чт1300:00+12ююв22760 0.0 102614
03:00+12ююв22865 0.0 102628
06:00+15ююв26775 0.0 1025174
09:00+21ююв245563 0.0 1025585
12:00+24ю364030 0.0 10232163
15:00+24ю474148 0.0 10222483
18:00+16ссз228376 0.7 102023
21:00+15вюв238592 0.8 101954
14 мая, пт
пт1400:00+14ююв2588100 0.2 1018110
03:00+14ююв41186100 0.2 1017447
06:00+14ю399475 0.8 1016505
09:00+16ююз488197 0.8 1017885
12:00+15ююз4977100 0.1 10181120
15:00+20ююз5841100 0.1 10171757
18:00+18юз3751100 0.0 1017960
21:00+13юз257214 0.0 101797
15 мая, сб
сб1500:00+10юз23784 0.0 101760
03:00+9ююз22839 0.0 101719
06:00+13ююв1373100 0.0 1016129
09:00+13юв247990 0.0 1015159
12:00+22ююв255577 0.0 10141487
15:00+20ю2575100 1.6 1012457
18:00+18св2388100 3.3 1010147
21:00+13в2396100 27.8 100884
16 мая, вс
вс1600:00+13ю3119895 0.0 1008329
03:00+13ю399837 0.0 1008232
06:00+15ю3109628 0.8 1007386
09:00+18ююз598188 0.8 1006824
12:00+20юз610655 1.1 10061333
15:00+21юз5105920 1.8 10061907
18:00+19юз510655 0.7 10071437
21:00+14юз4118658 0.8 1008683